Weather WX

World > North America > United States > Oregon

Oak Lodge, Oregon Regional Weather

Lat: 45.41N, Lon: 122.61W
Wx Zone: ORZ006
Feedback

Oak Lodge, OR Regional Weather

Expires:201906260400;;085062
ASUS46 KPQR 260310
RWROR 

OREGON REGIONAL WEATHER ROUNDUP
NATIONAL WEATHER SERVICE PORTLAND OR
800 PM PDT TUE JUN 25 2019

NOTE: "FAIR" INDICATES FEW OR NO CLOUDS BELOW 12,000 FEET WITH
NO SIGNIFICANT WEATHER AND/OR OBSTRUCTIONS TO VISIBILITY.


ORZ001>013-260400-
NORTHWEST OREGON

  
CITY           SKY/WX    TMP DP  RH WIND       PRES   REMARKS
ASTORIA        PTCLDY    58  50  75 SW6       29.90S                  
TILLAMOOK      PTCLDY    59  50  72 SW5       29.93R                  
NEWPORT        PTCLDY    57  52  82 S7        29.95S                  
PORTLAND       PTCLDY    67  53  61 NW8       29.86R                  
VANCOUVER WA   PTCLDY    66  54  65 NW7       29.85R                  
SCAPPOOSE      PTCLDY    65  51  60 NW10      29.85R                  
HILLSBORO      MOCLDY    67  52  58 NW6       29.86R                  
AURORA         CLOUDY    67  48  50 SW7       29.88R                  
MCMINNVILLE    PTCLDY    63  47  55 W9        29.87R                  
SALEM          CLOUDY    65  45  48 W12       29.87R                  
CORVALLIS      PTCLDY    61  48  62 W10       29.90R                  
EUGENE         MOCLDY    65  44  46 W12       29.90R                  
$$


SKY/WX - Weather  TMP - Temperature  DP - Dew Point  RH - Relative Humidity
WIND - Wind Direction/Speed PRES - Barometric Pressure VSB - Visibility
WCI - Wind Chill Index E13G22 Wind - East Wind 13 mph/Gusts of 22 mph